User: anonymous   Login
Location: Unspecified
(0.0000°N, 0.0000°E)
Time: 17:23:13
(UTC+02:00)
Language:

Cosmos 1933 - Orbit

View from above orbital plane
View from above orbital plane
View from above satellite
View from above satellite

Ground track
Ground track

The orbit data is extracted from the following two-line orbital elements,

1 18958U 88020A   17228.91178432 +.00000563 +00000-0 +39358-4 0  9990
2 18958 082.5280 045.2509 0013104 077.8402 282.4291 15.03267923579489
Epoch (UTC): 16 August 2017 21:52:58
Eccentricity: 0.0013104
inclination: 82.5280°
perigee height: 548 km
apogee height: 566 km
right ascension of ascending node: 45.2509°
argument of perigee: 77.8402°
revolutions per day: 15.03267923
mean anomaly at epoch: 282.4291°
orbit number at epoch: 57948

The dashed part of the orbit path shows where the satellite is in the earth's shadow,  

DLR